SCP
-0 -0 -1 -1 -0 0 -0 -0 -0 -0 -0 -0 -0 -0 -0 0 0 -0 -0 -0 -0 -0 0 -0 -0 -0 -0 -0 0 0 0 0 0 0 0 0 0 0 0 0 0 0 0
-0 -1 -1 -1 -0 0 -0 -0 -0 -0 -0 -0 -0 -0 0 0 0 0 -0 -0 -0 -0 -0 -0 0 0 0 0 0 0 0 0 0 0 0 0 0 0 0 0 0 0 0
-0 -0 -1 -1 -0 0 0 -0 -0 -0 -0 0 -0 -0 -0 0 0 0 0 0 0 0 0 0 0 0 0 0 0 0 0 0 0 0 -0 0 0 0 0 0 0 0 0
-0 -0 -0 -0 -0 0 0 0 0 0 0 -0 -0 -0 -0 -0 0 0 0 0 0 0 0 0 0 0 0 0 0 0 0 0 0 0 0 0 0 0 0 0 0 0 0
-0 -0 -0 -0 -0 0 0 0 0 0 0 -0 -0 -0 -0 -0 -0 0 0 0 0 0 0 0 0 0 0 0 0 0 0 0 0 0 0 0 0 0 0 0 0 0 0
-0 -0 -0 -1 -0 0 0 0 0 0 0 -0 -0 -0 -0 -0 -0 -0 0 0 0 0 0 0 0 0 0 0 0 0 0 0 0 0 0 0 0 0 0 0 0 0 0
-0 -0 -0 -1 -0 0 0 0 0 0 0 0 -0 -0 -0 -0 -0 -0 -0 0 0 0 0 0 0 0 0 0 0 0 0 0 0 0 0 0 0 0 0 0 0 0 0
0 0 -0 -0 -0 0 0 0 0 0 0 0 -0 -0 -0 -0 -0 -0 -0 0 0 0 0 0 0 0 0 0 0 0 0 0 0 0 0 0 0 0 0 0 0 0 0
0 0 0 0 0 0 0 0 0 0 0 0 0 -0 -0 -0 -0 0 0 0 0 0 0 0 0 0 0 0 0 0 0 0 0 0 0 0 0 0 0 0 0 0 0
0 0 0 -0 -0 0 -0 -0 -0 -0 -0 -0 -0 -0 0 0 0 0 0 0 0 0 0 0 0 0 0 0 0 0 0 0 0 0 0 0 0 0 0 0 0 0 0
0 0 0 0 -0 -0 -0 -0 -0 -0 -0 -0 -0 -0 0 0 0 0 0 0 0 0 0 0 0 0 0 0 0 0 0 0 0 0 0 0 0 0 0 0 0 0 0
0 0 0 0 0 0 -0 -0 -0 -0 -0 -0 -0 -0 -0 0 0 0 0 0 0 0 0 0 0 0 0 0 0 0 0 0 0 0 0 0 0 0 0 0 0 1 1
0 0 0 0 0 0 0 -0 -0 -0 -0 -0 -0 -0 0 0 0 0 0 0 0 0 0 0 0 0 0 0 0 0 0 0 0 0 0 0 0 0 0 0 0 1 1
0 0 0 0 0 0 0 0 -0 -0 -0 -0 -0 -0 0 0 0 0 0 0 0 0 0 0 0 0 0 0 0 0 0 0 0 0 0 0 0 0 0 0 0 0 1
0 0 -0 0 0 1 1 0 0 0 0 0 0 0 0 0 0 0 0 0 0 0 0 0 0 0 0 0 0 0 0 0 0 0 0 1 0 0 0 0 0 0 0
0 0 0 0 0 0 1 1 1 1 0 0 0 0 0 0 0 0 0 0 0 0 0 0 0 0 0 0 0 0 0 0 0 0 0 0 0 0 0 0 0 0 0
0 0 1 1 0 0 0 1 1 0 0 0 0 0 0 0 1 1 0 0 0 0 0 0 0 0 0 0 0 0 0 0 0 0 0 0 0 0 0 0 0 0 0
0 0 0 0 0 1 1 1 1 -0 0 0 0 0 0 1 1 1 0 0 0 0 0 0 0 0 0 0 0 1 1 1 1 1 1 0 0 0 0 0 0 1 0
0 0 0 0 1 2 1 1 1 1 0 0 0 0 0 0 0 0 0 0 1 0 0 0 0 0 0 1 1 1 2 2 1 1 1 1 0 0 0 1 1 0 0
0 0 0 0 2 7 1 2 1 1 -0 0 0 0 0 0 0 0 0 0 0 0 0 0 0 1 0 1 1 2 2 2 2 1 1 1 1 1 1 1 1 1 0
0 0 0 0 0 2 3 1 2 2 0 0 0 0 0 0 0 0 0 0 1 1 0 2 1 1 1 1 2 2 3 3 3 1 1 1 1 1 1 1 2 1 1
0 0 0 0 0 0 0 3 4 4 1 -0 0 1 1 0 0 0 1 1 1 1 2 2 3 2 2 2 2 3 3 4 2 1 1 1 1 1 1 1 1 1 1
0 0 0 0 0 0 0 0 3 4 6 2 3 1 1 0 1 1 1 1 2 2 3 3 3 2 3 2 2 4 4 2 3 2 1 1 1 1 1 1 1 1 1
0 0 0 0 0 0 0 0 0 1 2 2 5 2 1 1 1 1 1 2 3 4 5 4 3 3 3 3 3 4 5 4 2 1 1 1 1 1 1 1 1 1 1
0 0 0 0 0 0 0 0 0 0 0 0 1 3 6 5 3 2 3 3 4 4 5 5 3 4 3 2 4 5 4 3 1 1 1 1 1 1 1 1 1 1 1
0 0 0 0 0 0 0 0 0 0 0 0 0 1 1 3 4 4 3 5 4 4 4 4 5 4 2 3 3 6 4 2 1 1 1 0 1 2 1 1 1 0 0
Wind_Speed_500mb
36 34 36 38 45 48 43 40 42 42 39 34 32 32 32 33 35 36 35 33 31 28 24 21 19 17 16 14 11 9 9 9 12 12 12 11 9 9 10 10 14 7 5
35 39 40 41 46 50 45 42 44 43 39 37 37 36 37 38 39 39 37 34 31 27 24 21 18 18 17 15 12 10 11 12 13 13 15 16 12 10 8 8 14 4 2
42 44 42 43 47 52 48 45 46 45 42 41 39 41 41 40 39 38 36 33 29 26 23 20 17 14 14 14 12 12 11 12 14 15 22 12 6 11 9 5 5 4 5
46 49 46 49 48 54 53 50 51 49 46 45 42 43 42 41 39 37 34 31 28 25 22 18 16 12 13 12 11 11 11 12 13 15 15 9 9 10 10 7 4 3 2
50 54 49 53 52 57 57 55 55 53 51 49 47 46 44 40 37 34 31 28 26 22 20 16 13 10 8 8 8 10 10 10 11 13 10 7 7 1 8 9 8 3 4
52 59 54 54 56 59 60 59 58 56 54 51 49 46 42 38 33 30 26 24 21 19 16 14 11 7 5 3 3 5 7 6 4 6 6 2 5 7 4 6 6 5 2
56 61 60 59 60 59 62 62 61 58 55 53 49 44 39 34 30 27 24 21 18 15 13 12 10 8 4 3 3 2 1 4 9 7 6 5 6 8 5 3 1 3 3
58 58 67 63 63 62 62 63 63 62 58 54 48 42 38 33 29 26 23 20 17 15 14 13 11 9 8 9 9 7 7 4 4 10 10 8 13 10 12 10 7 3 1
55 54 70 71 69 67 64 64 64 63 60 55 50 42 38 34 30 27 25 23 20 16 15 14 14 13 13 13 14 14 13 12 8 12 10 10 19 15 15 16 15 10 5
53 53 62 75 73 72 69 68 66 63 60 58 54 48 42 37 33 30 28 26 22 19 17 17 17 17 16 17 18 20 21 20 16 17 13 15 17 15 19 17 20 17 12
46 50 50 63 68 69 69 71 68 65 61 58 55 51 45 41 38 36 34 31 26 23 22 21 22 22 22 23 23 25 26 21 20 19 17 28 21 18 22 21 23 23 17
41 48 50 51 54 56 54 58 72 69 66 63 59 55 51 45 40 39 38 35 31 29 28 28 27 29 29 23 22 28 31 23 26 24 21 32 26 22 22 24 24 25 24
39 44 47 50 53 55 53 53 57 58 64 62 62 59 55 44 41 44 36 38 37 33 34 34 34 35 30 23 23 24 23 26 27 27 27 36 30 27 25 25 25 28 30
28 47 50 48 59 61 52 53 49 52 49 49 53 62 56 55 50 44 35 30 34 30 33 32 28 30 31 32 30 28 29 29 27 28 29 40 33 32 31 29 28 27 31
12 25 44 60 68 73 72 49 53 51 49 48 50 61 60 54 53 47 42 36 30 28 28 30 31 33 33 34 33 31 30 31 31 31 29 42 37 37 36 35 30 26 26
20 14 26 48 68 75 75 73 68 66 50 55 52 57 63 62 59 49 47 43 35 33 29 30 30 32 33 33 33 33 32 30 30 31 28 31 37 41 41 40 34 29 27
22 22 23 31 43 59 68 77 81 82 76 66 63 66 67 65 62 55 47 43 34 35 36 41 40 41 38 36 37 35 33 30 28 30 30 30 31 35 41 43 39 36 32
15 25 40 30 24 45 63 75 78 82 80 77 76 74 75 68 64 58 53 53 49 45 32 28 31 46 35 37 37 32 28 28 28 30 28 28 27 27 30 41 38 35 29
12 12 21 28 43 34 37 63 76 77 82 70 80 85 81 73 70 45 46 61 54 39 37 38 43 46 38 40 37 33 29 28 28 27 27 26 28 28 24 33 35 37 36
13 15 13 18 26 42 48 38 53 57 83 80 80 91 91 81 80 65 73 50 43 34 21 41 45 61 52 38 32 33 31 29 27 30 29 26 28 28 27 32 37 31 38
21 23 18 9 16 36 58 62 51 49 86 81 80 94 92 85 84 74 70 60 70 40 48 54 65 66 55 44 33 32 30 32 31 31 30 27 31 31 30 36 36 31 28
24 26 25 19 14 19 25 57 48 52 69 73 60 79 91 93 96 87 72 65 72 60 63 62 68 59 43 37 29 26 30 25 24 30 31 31 33 30 32 32 28 31 31
22 27 29 30 27 26 26 35 57 65 67 57 43 49 72 82 86 85 76 72 75 61 65 68 64 58 45 38 37 28 20 22 12 16 24 31 32 26 27 28 31 32 32
19 23 28 30 31 31 30 27 31 37 48 60 74 67 66 55 60 70 75 76 78 74 67 68 56 54 53 41 31 37 37 24 20 19 14 19 26 27 28 24 25 26 29
21 24 27 33 35 35 33 38 36 38 40 44 48 65 57 55 59 56 61 66 72 71 68 62 58 56 44 37 35 26 36 30 31 33 31 23 22 24 24 23 23 23 26
18 19 28 37 39 37 38 38 44 47 47 45 47 53 48 45 57 64 64 63 64 72 64 59 60 53 43 43 35 37 31 29 27 33 34 34 27 21 22 23 24 21 23
Wind_Direction_500mb
185 194 187 181 174 170 169 167 170 168 164 153 151 144 141 137 138 139 140 142 145 146 143 140 137 131 128 126 124 119 104 97 85 86 87 90 96 101 102 86 78 96 63
189 187 187 184 176 170 170 167 171 169 162 157 154 148 146 145 144 142 143 145 144 142 140 139 138 131 124 120 114 105 99 92 89 89 94 90 91 97 106 101 116 229 82
183 179 187 184 180 173 170 168 169 169 165 161 157 154 153 151 149 146 145 142 141 142 139 136 131 127 121 113 104 95 90 94 96 96 90 104 90 81 90 119 135 98 66
184 180 187 181 182 176 173 169 169 169 167 164 162 161 158 156 154 151 146 145 142 143 139 136 134 131 119 116 107 101 104 106 101 108 85 116 106 80 83 87 118 185 98
193 183 184 181 180 178 178 172 170 169 168 168 166 166 164 163 158 154 152 152 150 149 146 144 138 127 129 123 118 104 100 107 108 95 139 125 124 118 95 82 65 67 146
191 185 180 185 179 179 178 178 174 171 172 171 170 169 169 167 165 162 163 162 161 158 157 153 154 157 154 135 112 109 108 113 99 158 162 192 137 195 118 90 90 89 139
188 184 180 187 180 181 179 180 178 175 176 174 173 174 175 175 175 175 179 176 177 176 178 180 187 191 217 250 261 259 190 145 116 223 228 201 236 226 224 203 134 69 66
188 184 182 187 182 182 183 183 182 180 180 180 180 181 184 186 188 191 193 194 195 200 205 204 214 221 236 253 268 279 282 263 206 232 238 249 260 253 232 233 227 239 317
189 186 186 188 186 186 187 188 187 186 186 187 188 192 195 198 201 205 208 210 210 216 227 229 233 233 238 251 265 273 274 267 220 246 247 259 266 256 236 231 231 233 240
190 190 189 191 189 189 192 194 194 194 195 196 196 198 205 209 212 216 221 224 224 229 239 245 251 252 251 252 259 267 270 268 265 256 266 244 268 256 238 233 231 237 237
195 193 192 191 193 193 196 199 198 200 202 205 206 206 211 217 222 225 227 234 235 241 248 255 260 260 257 260 260 263 267 265 258 262 253 260 268 263 236 233 231 236 243
203 196 194 194 195 193 197 202 203 205 208 211 213 215 214 220 228 230 236 240 243 247 254 257 262 265 263 257 269 263 258 249 255 252 254 256 261 259 236 230 233 240 244
219 208 200 197 198 196 197 202 207 207 212 215 217 219 219 222 229 234 235 243 247 251 259 263 266 266 263 247 248 247 253 248 252 255 252 256 253 253 236 234 236 244 251
218 217 215 207 202 201 201 206 205 206 211 215 219 221 222 225 232 235 231 233 249 246 257 248 252 255 259 259 250 246 251 246 252 254 253 260 247 248 240 240 242 253 257
254 224 222 230 219 212 205 208 206 208 214 217 220 229 231 233 239 244 241 240 239 244 248 250 253 252 261 262 261 262 252 251 250 250 251 261 249 243 242 242 244 255 255
260 247 241 231 234 232 222 222 226 221 215 221 226 232 236 238 244 246 252 254 247 249 250 256 255 256 261 255 266 268 259 255 253 250 251 256 264 246 242 241 243 252 257
257 256 262 241 248 231 237 238 231 233 229 233 233 237 243 244 248 251 252 257 250 259 259 271 271 267 261 264 265 263 263 263 253 251 254 253 258 258 242 240 243 252 260
245 236 233 260 250 231 231 237 236 245 245 244 244 247 245 247 250 254 260 264 266 268 266 270 301 274 261 261 263 260 252 249 249 249 253 254 250 240 257 240 245 254 261
276 240 234 221 239 249 246 245 242 242 242 241 245 246 252 250 252 254 281 272 280 285 280 293 283 274 261 262 260 257 247 245 251 249 242 245 241 234 226 247 246 254 261
283 291 280 237 231 218 245 231 241 230 253 258 254 246 248 249 248 247 242 255 246 260 279 308 285 265 259 254 257 254 248 248 247 246 244 241 238 237 236 234 249 259 261
276 272 282 287 215 220 224 246 237 248 248 253 250 249 248 248 248 246 255 246 252 263 261 263 267 265 252 252 251 256 257 257 247 246 246 240 242 242 242 248 254 252 260
279 279 277 275 261 236 225 233 236 249 252 268 251 251 245 244 247 249 247 244 246 249 255 252 261 250 250 240 238 251 262 252 250 251 241 244 244 242 249 256 247 250 251
298 280 282 275 267 270 259 237 224 237 230 240 241 260 249 240 243 249 251 248 248 254 256 258 251 245 239 240 241 235 260 262 264 244 244 236 240 238 246 258 250 251 255
322 295 283 287 282 271 265 263 231 229 237 242 251 260 251 243 240 243 247 251 249 254 263 259 247 245 234 235 243 237 236 248 244 252 229 235 230 241 250 249 247 252 250
326 323 312 293 287 289 277 264 260 254 246 245 231 232 246 247 249 246 248 249 249 254 259 244 244 243 233 234 238 246 235 242 246 250 256 232 233 248 244 257 251 257 257
314 317 312 299 293 287 279 271 263 258 254 247 244 243 245 247 247 242 245 246 246 252 247 239 239 246 239 250 236 231 232 231 250 247 246 254 256 257 240 257 256 253 254
Wind_Speed_850mb
36 34 36 38 45 48 43 40 42 42 39 34 32 32 32 33 35 36 35 33 31 28 24 21 19 17 16 14 11 9 9 9 12 12 12 11 9 9 10 10 14 7 5
35 39 40 41 46 50 45 42 44 43 39 37 37 36 37 38 39 39 37 34 31 27 24 21 18 18 17 15 12 10 11 12 13 13 15 16 12 10 8 8 14 4 2
42 44 42 43 47 52 48 45 46 45 42 41 39 41 41 40 39 38 36 33 29 26 23 20 17 14 14 14 12 12 11 12 14 15 22 12 6 11 9 5 5 4 5
46 49 46 49 48 54 53 50 51 49 46 45 42 43 42 41 39 37 34 31 28 25 22 18 16 12 13 12 11 11 11 12 13 15 15 9 9 10 10 7 4 3 2
50 54 49 53 52 57 57 55 55 53 51 49 47 46 44 40 37 34 31 28 26 22 20 16 13 10 8 8 8 10 10 10 11 13 10 7 7 1 8 9 8 3 4
52 59 54 54 56 59 60 59 58 56 54 51 49 46 42 38 33 30 26 24 21 19 16 14 11 7 5 3 3 5 7 6 4 6 6 2 5 7 4 6 6 5 2
56 61 60 59 60 59 62 62 61 58 55 53 49 44 39 34 30 27 24 21 18 15 13 12 10 8 4 3 3 2 1 4 9 7 6 5 6 8 5 3 1 3 3
58 58 67 63 63 62 62 63 63 62 58 54 48 42 38 33 29 26 23 20 17 15 14 13 11 9 8 9 9 7 7 4 4 10 10 8 13 10 12 10 7 3 1
55 54 70 71 69 67 64 64 64 63 60 55 50 42 38 34 30 27 25 23 20 16 15 14 14 13 13 13 14 14 13 12 8 12 10 10 19 15 15 16 15 10 5
53 53 62 75 73 72 69 68 66 63 60 58 54 48 42 37 33 30 28 26 22 19 17 17 17 17 16 17 18 20 21 20 16 17 13 15 17 15 19 17 20 17 12
46 50 50 63 68 69 69 71 68 65 61 58 55 51 45 41 38 36 34 31 26 23 22 21 22 22 22 23 23 25 26 21 20 19 17 28 21 18 22 21 23 23 17
41 48 50 51 54 56 54 58 72 69 66 63 59 55 51 45 40 39 38 35 31 29 28 28 27 29 29 23 22 28 31 23 26 24 21 32 26 22 22 24 24 25 24
39 44 47 50 53 55 53 53 57 58 64 62 62 59 55 44 41 44 36 38 37 33 34 34 34 35 30 23 23 24 23 26 27 27 27 36 30 27 25 25 25 28 30
28 47 50 48 59 61 52 53 49 52 49 49 53 62 56 55 50 44 35 30 34 30 33 32 28 30 31 32 30 28 29 29 27 28 29 40 33 32 31 29 28 27 31
12 25 44 60 68 73 72 49 53 51 49 48 50 61 60 54 53 47 42 36 30 28 28 30 31 33 33 34 33 31 30 31 31 31 29 42 37 37 36 35 30 26 26
20 14 26 48 68 75 75 73 68 66 50 55 52 57 63 62 59 49 47 43 35 33 29 30 30 32 33 33 33 33 32 30 30 31 28 31 37 41 41 40 34 29 27
22 22 23 31 43 59 68 77 81 82 76 66 63 66 67 65 62 55 47 43 34 35 36 41 40 41 38 36 37 35 33 30 28 30 30 30 31 35 41 43 39 36 32
15 25 40 30 24 45 63 75 78 82 80 77 76 74 75 68 64 58 53 53 49 45 32 28 31 46 35 37 37 32 28 28 28 30 28 28 27 27 30 41 38 35 29
12 12 21 28 43 34 37 63 76 77 82 70 80 85 81 73 70 45 46 61 54 39 37 38 43 46 38 40 37 33 29 28 28 27 27 26 28 28 24 33 35 37 36
13 15 13 18 26 42 48 38 53 57 83 80 80 91 91 81 80 65 73 50 43 34 21 41 45 61 52 38 32 33 31 29 27 30 29 26 28 28 27 32 37 31 38
21 23 18 9 16 36 58 62 51 49 86 81 80 94 92 85 84 74 70 60 70 40 48 54 65 66 55 44 33 32 30 32 31 31 30 27 31 31 30 36 36 31 28
24 26 25 19 14 19 25 57 48 52 69 73 60 79 91 93 96 87 72 65 72 60 63 62 68 59 43 37 29 26 30 25 24 30 31 31 33 30 32 32 28 31 31
22 27 29 30 27 26 26 35 57 65 67 57 43 49 72 82 86 85 76 72 75 61 65 68 64 58 45 38 37 28 20 22 12 16 24 31 32 26 27 28 31 32 32
19 23 28 30 31 31 30 27 31 37 48 60 74 67 66 55 60 70 75 76 78 74 67 68 56 54 53 41 31 37 37 24 20 19 14 19 26 27 28 24 25 26 29
21 24 27 33 35 35 33 38 36 38 40 44 48 65 57 55 59 56 61 66 72 71 68 62 58 56 44 37 35 26 36 30 31 33 31 23 22 24 24 23 23 23 26
18 19 28 37 39 37 38 38 44 47 47 45 47 53 48 45 57 64 64 63 64 72 64 59 60 53 43 43 35 37 31 29 27 33 34 34 27 21 22 23 24 21 23
Wind_Direction_850mb
185 194 187 181 174 170 169 167 170 168 164 153 151 144 141 137 138 139 140 142 145 146 143 140 137 131 128 126 124 119 104 97 85 86 87 90 96 101 102 86 78 96 63
189 187 187 184 176 170 170 167 171 169 162 157 154 148 146 145 144 142 143 145 144 142 140 139 138 131 124 120 114 105 99 92 89 89 94 90 91 97 106 101 116 229 82
183 179 187 184 180 173 170 168 169 169 165 161 157 154 153 151 149 146 145 142 141 142 139 136 131 127 121 113 104 95 90 94 96 96 90 104 90 81 90 119 135 98 66
184 180 187 181 182 176 173 169 169 169 167 164 162 161 158 156 154 151 146 145 142 143 139 136 134 131 119 116 107 101 104 106 101 108 85 116 106 80 83 87 118 185 98
193 183 184 181 180 178 178 172 170 169 168 168 166 166 164 163 158 154 152 152 150 149 146 144 138 127 129 123 118 104 100 107 108 95 139 125 124 118 95 82 65 67 146
191 185 180 185 179 179 178 178 174 171 172 171 170 169 169 167 165 162 163 162 161 158 157 153 154 157 154 135 112 109 108 113 99 158 162 192 137 195 118 90 90 89 139
188 184 180 187 180 181 179 180 178 175 176 174 173 174 175 175 175 175 179 176 177 176 178 180 187 191 217 250 261 259 190 145 116 223 228 201 236 226 224 203 134 69 66
188 184 182 187 182 182 183 183 182 180 180 180 180 181 184 186 188 191 193 194 195 200 205 204 214 221 236 253 268 279 282 263 206 232 238 249 260 253 232 233 227 239 317
189 186 186 188 186 186 187 188 187 186 186 187 188 192 195 198 201 205 208 210 210 216 227 229 233 233 238 251 265 273 274 267 220 246 247 259 266 256 236 231 231 233 240
190 190 189 191 189 189 192 194 194 194 195 196 196 198 205 209 212 216 221 224 224 229 239 245 251 252 251 252 259 267 270 268 265 256 266 244 268 256 238 233 231 237 237
195 193 192 191 193 193 196 199 198 200 202 205 206 206 211 217 222 225 227 234 235 241 248 255 260 260 257 260 260 263 267 265 258 262 253 260 268 263 236 233 231 236 243
203 196 194 194 195 193 197 202 203 205 208 211 213 215 214 220 228 230 236 240 243 247 254 257 262 265 263 257 269 263 258 249 255 252 254 256 261 259 236 230 233 240 244
219 208 200 197 198 196 197 202 207 207 212 215 217 219 219 222 229 234 235 243 247 251 259 263 266 266 263 247 248 247 253 248 252 255 252 256 253 253 236 234 236 244 251
218 217 215 207 202 201 201 206 205 206 211 215 219 221 222 225 232 235 231 233 249 246 257 248 252 255 259 259 250 246 251 246 252 254 253 260 247 248 240 240 242 253 257
254 224 222 230 219 212 205 208 206 208 214 217 220 229 231 233 239 244 241 240 239 244 248 250 253 252 261 262 261 262 252 251 250 250 251 261 249 243 242 242 244 255 255
260 247 241 231 234 232 222 222 226 221 215 221 226 232 236 238 244 246 252 254 247 249 250 256 255 256 261 255 266 268 259 255 253 250 251 256 264 246 242 241 243 252 257
257 256 262 241 248 231 237 238 231 233 229 233 233 237 243 244 248 251 252 257 250 259 259 271 271 267 261 264 265 263 263 263 253 251 254 253 258 258 242 240 243 252 260
245 236 233 260 250 231 231 237 236 245 245 244 244 247 245 247 250 254 260 264 266 268 266 270 301 274 261 261 263 260 252 249 249 249 253 254 250 240 257 240 245 254 261
276 240 234 221 239 249 246 245 242 242 242 241 245 246 252 250 252 254 281 272 280 285 280 293 283 274 261 262 260 257 247 245 251 249 242 245 241 234 226 247 246 254 261
283 291 280 237 231 218 245 231 241 230 253 258 254 246 248 249 248 247 242 255 246 260 279 308 285 265 259 254 257 254 248 248 247 246 244 241 238 237 236 234 249 259 261
276 272 282 287 215 220 224 246 237 248 248 253 250 249 248 248 248 246 255 246 252 263 261 263 267 265 252 252 251 256 257 257 247 246 246 240 242 242 242 248 254 252 260
279 279 277 275 261 236 225 233 236 249 252 268 251 251 245 244 247 249 247 244 246 249 255 252 261 250 250 240 238 251 262 252 250 251 241 244 244 242 249 256 247 250 251
298 280 282 275 267 270 259 237 224 237 230 240 241 260 249 240 243 249 251 248 248 254 256 258 251 245 239 240 241 235 260 262 264 244 244 236 240 238 246 258 250 251 255
322 295 283 287 282 271 265 263 231 229 237 242 251 260 251 243 240 243 247 251 249 254 263 259 247 245 234 235 243 237 236 248 244 252 229 235 230 241 250 249 247 252 250
326 323 312 293 287 289 277 264 260 254 246 245 231 232 246 247 249 246 248 249 249 254 259 244 244 243 233 234 238 246 235 242 246 250 256 232 233 248 244 257 251 257 257
314 317 312 299 293 287 279 271 263 258 254 247 244 243 245 247 247 242 245 246 246 252 247 239 239 246 239 250 236 231 232 231 250 247 246 254 256 257 240 257 256 253 254